SL-14 DEB, 46466

Orbit data source: Space-Track

SL-14 DEB, 46466 is space debris in LEO originally from a launch on Thu, 15 Aug 1991 UTC launched from the Plesetsk Missile And Space Complex (PKMTR). Debris objects in space refer to the collection of defunct objects orbiting the Earth. Examples of debris include non-operational satellites, rocket bodies, and fragments generated from explosions, collisions, or faulty payload assembly.

Loading next visibility...
Identifier
46466, 1991-056DB
Orbit
LEO
Country
Flag of CISCIS
Related business
Manufacturer
Unknown
Mission
Spacecraft
Bus & Motor
Unknown
Mass
Unknown
Launch date (UTC)
1991-08-15 (34 years ago)
Launch vehicle
Unknown
Launch site
Plesetsk Missile And Space Complex (PKMTR)
Object type
Payload
Rocket body
Debris
Shape & HBR
Unknown shape, 0.1 m
Radar Cross Section
Small (<0.1 m²)

Expand to show TLE details & history
Last TLE update: 2 days ago

TLE from 2 days ago
0 SL-14 DEB
1 46466U 91056DB  25349.20959256  .00000925  00000-0  21946-2 0  9998
2 46466  82.5674 264.9894 0004488  61.4804 298.6773 13.22287699258409
Epoch: 2025-12-15T05:01Z
TLE epoch observation values (Epoch: 2025-12-15T05:01:48.797Z)
Latitude
0.00001°
Longitude
105.42464°
Altitude
1,177.184 km
Speed
7.266 km/s
True Right ascension
17h 39m 57s
True Declination
0° 00' 00"
Sunlit
Object was in daylight at epoch
Visualization orbit readout
Latitude
Unknown
Longitude
Unknown
Altitude
Unknown
Speed
Unknown
Apparent Right ascension
Unknown
Apparent Declination
Unknown
Sunlit
N/A
Visualization observer readout
Local Sidereal Time
21:39:34
Azimuth
Unknown
Elevation
Unknown
Doppler factor
Unknown
Orbital elements
Apogee altitude
1,176.62 km
Perigee altitude
1,169.842 km
Semi-major axis
7,551.368 km
Eccentricity
0.00045
Inclination
82.5674°
RAAN
264.9894°
Arg. of periapsis
61.4804°
True anomaly
298.63217°
Mean anomaly
298.6773°
Eccentric anomaly
298.65474°
Mean motion
3.30754 °/min
Orbital period
108.84 mins
BSTAR
0.0021946
Loading maneuver chart data...
Computing Atmospheric mass density...
Loading historical data...
Loading historical data...
Loading historical data...
Loading historical data...
Loading historical data...
Loading historical data...
Loading historical data...

Documentation

Showing up to 5 results
|